EST,Max TemperatureF,Mean TemperatureF,Min TemperatureF,Max Dew PointF,MeanDew PointF,Min DewpointF,Max Humidity, Mean Humidity, Min Humidity, Max Sea Level PressureIn, Mean Sea Level PressureIn, Min Sea Level PressureIn, Max VisibilityMiles, Mean VisibilityMiles, Min VisibilityMiles, Max Wind SpeedMPH, Mean Wind SpeedMPH, Max Gust SpeedMPH,PrecipitationIn, CloudCover, Events, WindDirDegrees
2011-12-1,46,34,23,34,28,21,100,89,57,30.40,30.33,30.26,10,10,1,4,0,,0.00,0,,220
2011-12-2,48,36,23,36,29,23,100,87,58,30.54,30.43,30.33,10,10,0,6,1,,0.00,1,Fog,237
2011-12-3,55,40,26,36,30,25,100,79,41,30.53,30.46,30.37,10,10,7,5,0,,0.00,0,,120
2011-12-4,62,46,30,36,31,28,100,65,34,30.34,30.28,30.22,10,10,10,13,1,18,0.00,0,,207
2011-12-5,53,52,50,52,46,37,100,82,54,30.22,30.14,30.01,10,9,1,6,0,,0.00,4,Rain,120
2011-12-6,51,46,41,52,44,41,100,100,93,30.08,30.04,30.01,10,4,1,5,0,,0.00,8,Rain,180
2011-12-7,39,34,28,39,34,27,100,96,80,30.15,29.98,29.86,10,8,3,10,1,20,0.00,7,Rain,290
2011-12-8,41,34,26,30,27,25,100,85,61,30.35,30.28,30.16,10,10,10,8,3,,0.00,1,,227
2011-12-9,44,32,21,32,27,21,100,84,49,30.34,30.27,30.23,10,10,10,9,1,,0.00,1,,236
2011-12-10,35,28,21,32,21,10,93,69,41,30.55,30.48,30.36,10,10,10,7,1,,0.00,3,,265
2011-12-11,39,26,14,21,17,14,100,76,38,30.64,30.56,30.50,10,10,10,5,0,,0.00,0,,77
2011-12-12,44,30,15,28,22,14,100,80,46,30.52,30.48,30.44,10,10,10,0,0,,0.00,0,,-1
2011-12-13,50,36,21,36,28,21,100,80,43,30.52,30.46,30.42,10,10,7,4,0,,0.00,1,Rain,190
2011-12-14,55,46,37,50,42,36,100,89,67,30.39,30.27,30.10,10,9,5,4,0,,0.00,3,Rain,175
2011-12-15,59,50,41,55,48,34,100,84,67,30.17,30.00,29.90,10,9,2,18,6,30,0.00,5,Rain,232
2011-12-16,41,36,32,34,30,28,93,81,75,30.36,30.29,30.17,10,10,10,10,2,16,0.00,3,,304
2011-12-17,35,32,28,30,26,23,93,75,65,30.35,30.29,30.25,10,10,10,9,1,,0.00,6,,272
2011-12-18,42,34,26,30,29,27,100,82,57,30.35,30.28,30.23,10,10,10,12,2,16,0.00,3,,235
2011-12-19,48,37,26,34,30,27,100,73,54,30.22,30.17,30.10,10,10,10,10,3,,0.00,2,,220
2011-12-20,46,40,33,45,41,34,100,96,81,30.18,30.09,29.95,10,8,0,5,0,,0.00,6,Fog-Rain,133
2011-12-21,62,53,44,55,47,41,100,78,52,29.99,29.84,29.71,10,10,4,22,3,28,0.00,3,Rain,226
2011-12-22,46,39,32,45,39,32,100,96,87,30.14,30.04,29.93,10,9,2,9,0,,0.00,2,Rain,49
2011-12-23,42,38,35,41,36,34,100,92,76,30.32,30.22,30.04,10,10,3,6,1,,0.00,7,Rain,266
2011-12-24,41,34,28,34,30,27,100,87,61,30.48,30.40,30.34,10,10,10,10,2,,0.00,3,,214
2011-12-25,50,36,23,32,28,23,100,76,46,30.35,30.24,30.10,10,10,7,15,3,25,0.00,0,,241
2011-12-26,46,39,32,32,29,27,93,72,49,30.41,30.30,30.10,10,10,10,6,1,,0.00,3,,190
2011-12-27,42,38,33,41,35,30,100,94,81,29.97,29.69,29.44,10,7,2,17,3,31,0.00,6,Rain,206
2011-12-28,39,34,28,34,28,25,100,81,61,30.08,29.98,29.77,10,10,5,10,6,18,0.00,4,Rain,281
2011-12-29,46,36,26,32,30,27,100,74,57,30.04,29.91,29.81,10,10,10,10,3,20,0.00,0,,208
2011-12-30,55,45,35,45,37,30,93,65,51,29.93,29.82,29.70,10,10,4,16,5,22,0.00,2,Rain,206
2011-12-31,46,40,33,41,38,34,100,86,81,30.14,30.00,29.77,10,10,5,9,3,,0.00,6,Rain,248